sat.trackr.live / text

‹ back to catalog

IRIDIUM 111

NORAD 41926 · 2017-003K

PAYLOAD ACTIVE UNKNOWN

§ Identity

Operator
Country
US
Launch date
2017-01-14
Launch site
AFWTR
Launch vehicle
Mass (kg)
RCS (m²)
2.63

Purposes: comms

External: N2YO · Heavens-Above · Gunter

§ Orbital elements

Epoch: 2026-09-10T04:02:54.083328Z

Period
100.40 min
Inclination
86.3931°
Eccentricity
0.0002067
Mean motion
14.34216578 rev/d
Perigee alt
776.2 km
Apogee alt
779.2 km
Semi-major
7,155.8 km
B*
-3.5840e-5
RAAN
52.8167°
Arg perigee
89.9828°
Mean anomaly
270.1604°
Rev number
50,543

§ Raw data

IRIDIUM 1111 41926U 17003K   26253.16868152 -.00000081  00000+0 -35840-4 0  99922 41926  86.3931  52.8167 0002067  89.9828 270.1604 14.34216578505430

JSON: /api/v1/satellites/41926 · /tle

For live sub-satellite position, see the globe view (requires WebGL).

§ Visibility from observer

Set your observer location to see the next 7 days of passes ≥ 10°. The values pass through the URL so the page stays shareable.

No JS? Fill the form by hand. The geolocation button needs JavaScript.